Muscatine
Sunday 1:35 PM
Temperature73° (73°/50°)
Dew Point45°
Relative Humidity36
%
Visibility10
mi
Pressure1025.7
mb
Wind Direction
Wind SpeedCalm
Precipitation Today0.00"

Last 30 Observations

Time PresWx Temp DP Feels RH% Vsby Pressure Ceiling Direction Speed 1h Precip
1:15 PM 73° 46° 38
%
10
mi
1026.1
mb
Variable 7
mph
0.00"
12:55 PM 73° 43° 33
%
10
mi
1026.4
mb
E
100°
6
mph
0.00"
12:35 PM 72° 45° 38
%
10
mi
1026.4
mb
Variable 6
mph
0.00"
12:15 PM 72° 41° 33
%
10
mi
1026.8
mb
Calm 0.00"
11:55 AM 72° 43° 35
%
10
mi
1026.8
mb
Calm 0.00"
11:35 AM 70° 46° 43
%
10
mi
1027.1
mb
Calm 0.00"
11:15 AM 70° 48° 46
%
10
mi
1027.1
mb
Calm 0.00"
10:55 AM 68° 50° 53
%
10
mi
1027.1
mb
Calm 0.00"
10:35 AM 68° 50° 53
%
10
mi
1027.4
mb
SSE
150°
7
mph
0.00"
10:15 AM 66° 52° 60
%
10
mi
1027.4
mb
E
100°
8
mph
0.00"
9:55 AM 64° 50° 60
%
10
mi
1027.8
mb
ESE
120°
8
mph
0.00"
9:35 AM 64° 50° 60
%
10
mi
1027.8
mb
Variable 6
mph
0.00"
9:15 AM 63° 50° 63
%
10
mi
1027.8
mb
SE
130°
7
mph
0.00"
8:55 AM 61° 50° 68
%
10
mi
1027.8
mb
12,000
ft
ESE
120°
6
mph
0.00"
8:35 AM 61° 50° 68
%
10
mi
1027.4
mb
11,000
ft
ESE
120°
8
mph
0.00"
8:15 AM 59° 50° 72
%
10
mi
1027.4
mb
11,000
ft
E
100°
8
mph
0.00"
7:55 AM 59° 52° 77
%
10
mi
1027.4
mb
E
80°
8
mph
0.00"
7:35 AM 59° 54° 82
%
10
mi
1027.1
mb
NE
40°
3
mph
0.00"
7:15 AM 55° 50° 82
%
10
mi
1026.8
mb
Calm 0.00"
6:55 AM 54° 50° 88
%
10
mi
1026.4
mb
Calm 0.00"
6:35 AM 52° 50° 94
%
10
mi
1026.4
mb
Calm 0.00"
6:15 AM 52° 48° 87
%
10
mi
1026.1
mb
Calm 0.00"
5:55 AM 52° 48° 87
%
10
mi
1025.7
mb
Calm 0.00"
5:35 AM 50° 48° 94
%
10
mi
1025.7
mb
Calm 0.00"
5:15 AM 50° 46° 87
%
10
mi
1025.4
mb
Calm 0.00"
4:55 AM 52° 48° 87
%
10
mi
1025.4
mb
Calm 0.00"
4:35 AM 52° 48° 87
%
10
mi
1025.4
mb
Calm 0.00"
4:15 AM 52° 48° 87
%
10
mi
1025.1
mb
WNW
290°
3
mph
0.00"
3:55 AM 52° 48° 87
%
10
mi
1025.1
mb
W
280°
3
mph
0.00"
3:35 AM 52° 48° 87
%
10
mi
1025.1
mb
Calm 0.00"